Regional Weather Roundup
Issued by NWS

Home | Current Version | Previous Version | Graphics & Text | Print | Product List | Glossary On
Versions: 1 2 3 4 5 6 7 8 9 10 11 12 13 14 15 16 17 18 19 20 21 22 23 24 25 26 27 28 29 30 31 32 33 34 35 36 37 38 39 40 41 42 43 44 45 46 47 48 49 50
000
ASUS43 KDMX 250207
RWRIA

WEATHER ROUNDUP FOR IOWA
NATIONAL WEATHER SERVICE DES MOINES IA
900 PM CDT THU JUL 24 2014

NOTE: "FAIR" INDICATES FEW OR NO CLOUDS BELOW 12,000 FEET WITH NO
SIGNIFICANT WEATHER AND/OR OBSTRUCTIONS TO VISIBILITY.

* - THESE STATIONS ARE NOT NWS STATIONS...THUS NOT UNDER NWS
QUALITY CONTROL.  THEY ALSO DO NOT REPORT WEATHER SUCH
AS PRECIPITATION OR FOG.

IAZ001>003-012>014-020>022-031>034-043>046-250300-
   NORTHWEST IOWA

CITY           SKY/WX    TMP DP  RH WIND       PRES   REMARKS
CARROLL *      CLEAR     68  61  77 S15G24    29.88F
CHEROKEE *     PTCLDY    68  63  83 S15       29.87F
DENISON *      CLEAR     70  61  73 S18G29    29.88F
LE MARS *      CLEAR     72  63  73 S15G26    29.87F
ORANGE CITY *  PTCLDY    70  61  73 S14       29.88F
SHELDON *      PTCLDY    66  63  88 S9        29.88S
SIOUX CITY     CLEAR     75  62  64 S16G29    29.86F
SPENCER        PTCLDY    66  60  81 S8        29.89S
STORM LAKE *   CLEAR     66  63  88 S14G22    29.89F
$$

IAZ055>058-069>071-079>083-090>094-250300-
   SOUTHWEST IOWA

CITY           SKY/WX    TMP DP  RH WIND       PRES   REMARKS
ATLANTIC *     CLEAR     72  63  73 SE10G18   29.95F
AUDUBON *      CLEAR     72  64  78 S13G18    29.94F
CLARINDA *     CLEAR     73  64  73 S7        30.00F
COUNCIL BLFS *   N/A     72  64  78 SE15G24   29.94F
CRESTON *      CLEAR     68  63  83 SE10      30.00F
HARLAN  *      CLEAR     72  63  73 S13G18    29.97F
LAMONI         MOCLDY    70  62  76 E5        30.04F
RED OAK *      CLEAR     73  61  64 S10       29.97F
SHENANDOAH *   CLEAR     73  63  68 SE9       29.98F
$$

IAZ047>049-059>061-072>074-084-250300-
   CENTRAL IOWA

CITY           SKY/WX    TMP DP  RH WIND       PRES   REMARKS
AMES           MOCLDY    68  61  78 S14G25    29.86F
ANKENY *       CLEAR     72  61  68 S17G26    29.87F
CHARITON *     CLOUDY    70  63  78 SE9       30.00F
DES MOINES     CLOUDY    72  61  68 S15G28    29.89F
GRINNELL*      CLOUDY    70  61  73 SE9G17    29.94R
KNOXVILLE *    CLOUDY    70  63  78 S16       29.90F
MARSHALLTOWN   CLOUDY    65  62  90 E9        29.91S
PELLA *        CLOUDY    70  62  75 S15G22    29.92F
PERRY *          N/A     68  63  83 S18G24    29.88F
$$

IAZ004>006-015-016-023>025-035-036-250300-
   NORTH CENTRAL IOWA

CITY           SKY/WX    TMP DP  RH WIND       PRES   REMARKS
ALGONA *       CLEAR     64  61  88 SE7       29.92R
CLARION *      CLEAR     63  63 100 S5        29.93R
ESTHERVILLE    CLEAR     62  58  86 SE6       29.89F
FORT DODGE *   MOCLDY    66  61  82 S10       29.90F
MASON CITY     CLEAR     65  61  87 S9        29.93F
FOREST CITY *  CLEAR     63  63 100 S6        29.93R
IOWA FALLS *     N/A     64  63  94 CALM      29.94R
$$

IAZ007>011-017>019-026>030-037>042-050>054-066-250300-
   NORTHEAST IOWA

CITY           SKY/WX    TMP DP  RH WIND       PRES   REMARKS
CEDAR RAPIDS   CLOUDY    69  60  73 SE7       29.97F
CHARLES CITY * CLEAR     66  61  82 S8        29.92F
CLINTON *      CLOUDY    70  57  64 S9        30.05F
DECORAH *      CLEAR     68  59  73 S6        29.95S
DUBUQUE        CLOUDY    66  60  81 S8        30.02F
MONTICELLO *   CLEAR     70  61  73 SE8       29.98F
OELWEIN *      CLEAR     68  61  77 SE8       29.97S
WATERLOO       CLOUDY    70  61  73 SE10      29.92F
$$

IAZ064-065-067-068-078-250300-
   EAST CENTRAL IOWA

CITY           SKY/WX    TMP DP  RH WIND       PRES   REMARKS
DAVENPORT      CLOUDY    68  58  70 S7        30.03F
IOWA CITY      CLOUDY    71  60  68 SE9       29.98F
MT. PLEASANT * CLOUDY    68  63  83 S6        30.04F
MUSCATINE *    PTCLDY    72  61  68 S9G16     29.99F
QUAD CITIES    CLOUDY    69  59  70 S7        30.03F
$$

IAZ062-063-075>077-085>089-095>099-250300-
   SOUTHEAST IOWA

CITY           SKY/WX    TMP DP  RH WIND       PRES   REMARKS
BURLINGTON     MOCLDY    66  62  87 CALM      30.06F
FAIRFIELD *    PTCLDY    70  61  73 S12       29.99F
FORT MADISON * CLEAR     68  64  88 CALM      30.08F
KEOKUK *       CLEAR     68  63  83 NW5       30.07F
OSKALOOSA *      N/A     69  62  77 S22       29.90F
CENTERVILLE *  CLEAR     66  64  94 SE5       30.06F
OTTUMWA        CLOUDY    69  61  75 S12       29.96F
WASHINGTON *   PTCLDY    70  61  73 S16       29.93F
$$

ABBREVIATIONS USED IN REMARKS
   TC - TEMPERATURES IN CELSIUS
  WCI - WIND CHILL INDEX
   HX - HEAT INDEX
  VSB - VISIBILITY
$$




USA.gov is the U.S. government's official web portal to all federal, state and local government web resources and services.